Regional Weather Roundup
Issued by NWS Wakefield, VA

Home | Current Version | Previous Version | Text Only | Print | Product List | Glossary On
Versions: 1 2 3 4 5 6 7 8 9 10 11 12 13 14 15 16 17 18 19 20 21 22 23 24 25 26 27 28 29 30 31 32 33 34 35 36 37 38 39 40 41 42 43 44 45 46 47 48 49 50
000
ASUS41 KAKQ 291410
RWRAKQ

REGIONAL WEATHER ROUNDUP
NATIONAL WEATHER SERVICE WAKEFIELD VA
900 AM EST THU JAN 29 2015

Note: "fair" indicates few or no clouds below 12,000 feet with no
significant weather and/or obstructions to visibility. * = Denotes
station may not report precipitation (e.g., rain,snow,etc.),
thunder or fog.

VAZ042-051-052>054-056-291500-
NORTHERN VIRGINIA

CITY           SKY/WX    TMP DP  RH WIND       PRES   REMARKS
WASH NATIONAL  CLOUDY    31  13  47 CALM      30.33F
DULLES         CLOUDY    22  14  71 CALM      30.30R
FORT BELVOIR   PTSUNNY   25  17  72 NW1       30.33S
QUANTICO       CLOUDY    25  15  66 CALM      30.34F
FREDERICKSBRG* CLOUDY    25  18  75 CALM      30.32S
STAFFORD*      CLOUDY    22  15  72 CALM      30.36S
WARRENTON      CLOUDY    23  22  96 CALM      30.31S
CULPEPER*      CLOUDY    25  19  80 CALM      30.31F
MANASSAS*      SUNNY     21  19  93 CALM      30.32R
LEESBURG*      CLOUDY    23  18  80 CALM      30.30F
WINCHESTER     CLOUDY    25  14  63 CALM      30.24F
FRONT ROYAL*   FAIR      25  18  74 CALM      30.23F
LURAY*         FAIR      27  21  80 CALM      30.24S
$$

VAZ048-049-060>072-079>083-291500-
CENTRAL AND SOUTH CENTRAL VIRGINIA

CITY           SKY/WX    TMP DP  RH WIND       PRES   REMARKS
RICHMOND       PTSUNNY   28  18  66 S3        30.33F
CHESTERFIELD*  FAIR      25   9  50 CALM      30.34F
PETERSBURG*    PTSUNNY   27  22  81 CALM      30.35F
HANOVER        CLOUDY    26  17  68 CALM      30.34F
TAPPAHANNOCK*  CLOUDY    26  17  66 CALM      30.33F
QUINTON*       FAIR      26  16  65 CALM      30.34F
CHARLOTTSVILLE PTSUNNY   25  14  63 S3        30.29F
GORDONSVILLE*  FAIR      25  17  72 CALM      30.30F
ORANGE*        CLOUDY    27  19  74 CALM      30.32F
LOUISA*        CLOUDY    27  12  54 CALM      30.30S
BUMPASS*       FAIR      23  14  67 CALM      30.32S
FARMVILLE*     CLOUDY    24  19  83 CALM      30.31F
CREWE*         FAIR      25  19  80 CALM      30.33R
FORT PICKETT*  FAIR      26  17  71 S7        30.33R
CHASE CITY*    FAIR      29  19  66 SE3       30.32F
CLARKSVILLE*   FAIR      28  21  74 CALM      30.33S
SOUTH HILL*    CLOUDY    25  18  74 CALM      30.40S
LAWRENCEVILLE* FAIR      24  18  77 CALM      30.34S
EMPORIA*       MOSUNNY   27  19  74 CALM      30.37F
$$

VAZ088>098-291500-
SOUTHEAST VIRGINIA

CITY           SKY/WX    TMP DP  RH WIND       PRES   REMARKS
NORFOLK        MOSUNNY   34  17  50 NE7       30.34F
VIRGINIA BEACH PTSUNNY   34  18  52 E6        30.36R
NORFOLK NAVAL  PTSUNNY   36  22  56 N6        30.36F
WEST POINT*    MOSUNNY   30  20  66 CALM      30.35F
SALUDA*        FAIR      31  17  56 CALM      30.34F
NEWPORT NEWS   MOSUNNY   33  19  56 CALM      30.35F
LANGLEY AFB    MOSUNNY   32  20  62 CALM      30.35F
FORT EUSTIS    MOSUNNY   31  17  56 VRB2      30.33F
WILLIAMSBURG*    N/A     30  21  69 CALM      30.35F
HR EXEC AP*    FAIR      28  23  80 CALM      30.38S
FRANKLIN*      MOSUNNY   27  19  71 CALM      30.36F
WAKEFIELD      MOSUNNY   29  18  63 CALM      30.35F
$$

VAZ020-022-025-037-045-291500-
WEST CENTRAL AND SOUTHWEST VIRGINIA

CITY           SKY/WX    TMP DP  RH WIND       PRES   REMARKS
STAUNTON*      PTSUNNY   26  19  74 SW5       30.25R
WAYNESBORO*    PTSUNNY   27  13  54 CALM      30.23R
HOT SPRINGS VA MOSUNNY   27  13  53 S12       30.08F WCI  17
LYNCHBURG      MOSUNNY   28  12  51 S5        30.31R
DANVILLE       PTSUNNY   25  18  74 CALM      30.33S
SOUTH BOSTON*  FAIR      25  21  85 CALM      30.34R
MARTINSVILLE   MOSUNNY   25  20  79 CALM      30.31S
ROANOKE        MOSUNNY   27  18  69 CALM      30.28S
BLACKSBURG     MOSUNNY   31  19  61 E5        30.23F
DUBLIN*        PTSUNNY   28  20  72 CALM      30.21F
MARION*        MOSUNNY   28  19  69 SE6       30.19F
HILLSVILLE*    MOSUNNY   32  18  55 S9        30.18F
RICHLANDS*     FAIR      37  11  34 S3        30.10F
WISE*          PTSUNNY   41  14  33 S9        30.09F
ABINGDON*      CLOUDY    34  21  58 E9        30.15F
$$

MDZ021>025-VAZ099-100-291500-
SOUTHERN MARYLAND AND THE DELMARVA PENINSULA

CITY           SKY/WX    TMP DP  RH WIND       PRES   REMARKS
PATUXENT RIVER PTSUNNY   30  16  56 E3        30.32F
BAY BRIDGE APT   N/A     30   9  40 E5        30.33F
LEONARDTOWN    MOSUNNY   28  14  54 MISG        N/A
DOVER          SUNNY     27  15  61 NE7       30.33F
GEORGETOWN     SUNNY     28  13  53 CALM      30.34F
EASTON         MOSUNNY   30  16  55 E3        30.35F
CAMBRIDGE      NOT AVBL
SALISBURY      SUNNY     30  13  49 CALM      30.34F
OCEAN CITY     SUNNY     29  14  53 N5        30.35S
WALLOPS ISLAND PTSUNNY   29  13  51 N5        30.36R
ACCOMACK*      SUNNY     32  14  47 NE5       30.35S
$$

NCZ012>017-030>032-291500-
NORTH CENTRAL AND EASTERN NORTH CAROLINA

CITY           SKY/WX    TMP DP  RH WIND       PRES   REMARKS
ROANOKE RAPIDS FAIR      28  23  80 SW3       30.36F
RALEIGH        PTSUNNY   31  13  47 CALM      30.36R
ELIZABETH CITY MOSUNNY   32  20  61 CALM      30.37S
AHOSKIE*       CLOUDY    27  18  69 CALM      30.37S
EDENTON*       MOSUNNY   30  18  60 CALM      30.37S
CURRITUCK*     MOSUNNY   32  17  54 CALM      30.37S
KILL DEVIL HLS MOSUNNY   35  23  63 NW5       30.35R
MANTEO         MOSUNNY   36  23  60 N7        30.36S
CAPE HATTERAS  SUNNY     38  25  59 N7        30.36R
TARBORO*       FAIR      30  22  72 CALM      30.39R
GOLDSBORO      MOSUNNY   30  27  86 CALM      30.36F
WASHINGTON     SUNNY     29  17  61 CALM      30.38S
GREENVILLE     MOSUNNY   32  18  55 CALM      30.38R
NEW BERN       MOSUNNY   33  20  58 CALM      30.39S
WILMINGTON     SUNNY     33  21  61 NE5       30.38S
$$

VAZ048-291500-
ELSEWHERE

CITY           SKY/WX    TMP DP  RH WIND       PRES   REMARKS
HARRISBURG PA  PTSUNNY   16   9  74 SE5       30.29F
BALTIMORE      PTSUNNY   25  10  53 E3        30.31F
ANNAPOLIS      MOSUNNY   28  13  53 E3        30.32F
ANDREWS AFB      N/A     27  10  49 E3        30.31F
PHILADELPHIA   PTSUNNY   28   8  43 E9        30.33F
HENDERSON NC   PTSUNNY   29  14  53 CALM      30.34S
GREENSBORO     PTSUNNY   33  19  56 SW5       30.29S
ROCKY MOUNT    MOSUNNY   30  22  72 CALM      30.37S
$$

VAZ100-291500-
MARINE

STATION/POSITION TIME  TEMP    WIND        PRES    WAVE   SWELL
                       AIR SEA DIR/SP/G            HT/PER HT/PER
                 (UTC) (F)     (DEG/KT/KT) (MB)    (FT/S) (FT/S)
BRANDYWINE LGT   1400   26 36   60/  9/ 11 1027.2F
CAPE MAY NJ      1400   27 36              1026.8F
LEWES DE         1400   28 36   50/  7/  9 1027.0F
15NM E FENWICK I 1400   33 40              1027.1R   4/11
OCEAN-CITY-INLET 1400   27 37   10/  6/  7 1027.2S
WACHAPREAGUE VA  1400   32 35  350/  3/  5 1027.8S
THOMAS POINT MD  1400   28 35   90/  7/  8 1027.7F
COVE POINT MD    1400   29     100/  6/  7 1026.7F
SOLOMONS ISLAND  1400      37                N/A
BISHOPS HEAD MD  1400   30 33   40/  5/  7 1026.7F
PINEY POINT MD   1400          100/  6/  8   N/A
CAMBRIDGE MD     1400   28 34   80/  4/  5 1026.9F
LEWISETTA VA     1400   31 35   90/  3/  4 1026.9S
RAPPAHANNOCK LGT 1400           40/  9/ 10 1027.9F
YORK RVR RNG VA  1400   32      30/  6/  7 1027.0F
YORKTOWN VA      1400   31 40   40/  6/  7 1027.4F
DOMINION TERM VA 1400   31      40/  3/  5 1027.7F
KIPTOPEKE VA     1400      43   80/  6/  8   N/A
CHES BAY BRIDGE  1400   33 40   30/  9/ 11 1027.3F
CAPE HENRY VA    1400   32      20/  9/ 10 1026.5S
CHESAPEAKE LGHT  1300   33     360/  9/ 10 1028.1R
WILLOUBY STN VA  1400   32     360/  5/  6 1028.1F
S CRANEY ISL VA  1400           20/  5/  6 1027.6F
CAPE HENRY BUOY  1300      42                N/A     4/ 7   2/13
CAPE CHARLES BUO 1300      41                N/A     3/12   3/12
OFFSHORE WE BUOY 1400      43                N/A     4/ 7   3/ 7
64NM E OF VA BCH 1400   37 48  350/ 12/ 14 1026.7R   6/11   5/11
DUCK PIER NC     1400   33 42  320/  8/ 10 1027.1S
44100 DUCK FRF   1400      44                N/A     5/12   2/12
44056 DUCK FRF   1400      42                N/A     4/12   2/12
OREGON INLET NC  1400   35 41  300/  7/  9 1027.9R
HATTERAS NC      1400   36 44  350/ 10/ 12 1028.3R
DIAMOND SHLS NC  1400   40 71  340/ 12/ 16 1027.6R   5/10   5/10
CAPE LOOKOUT NC  1300   35     350/  7/  9 1028.3R
$$


USA.gov is the U.S. government's official web portal to all federal, state and local government web resources and services.